Home > Weather > Bamyan > Past weeks

Flag for Afghanistan Past Weather in Bamyan, Afghanistan — Yesterday and Last 2 Weeks

Now
99 °F

Duststorm.


Feels Like: 95 °F
Forecast: 57 / 77 °F
Wind: 21 mph from West

Location: Termez Airport

Current Time: Jul 28, 2016 at 1:25:13 PM

Latest Report: Jul 28, 2016 at 12:30 PM


Visibility: 6 mi

Pressure: 29.68 "Hg (22.55 "Hg at 2492m altitude)

Humidity: 18%

Dew Point: 48 °F

Location of BamyanLocation

Past Weather in Bamyan — Graph

°F

Bamyan Temperature Yesterday

Maximum temperature yesterday: 113 °F (at 3:00 PM)
Minimum temperature yesterday: 77 °F (at 6:00 AM)
Average temperature yesterday: 93 °F

High & Low Weather Summary for the Past Weeks

 TemperatureHumidityPressure
High113 °F (Jul 26, 2:00 PM)69% (Jul 24, 4:30 AM)29.83 "Hg (Jul 24, 4:30 AM)
Low68 °F (Jul 20, 5:00 AM)7% (Jul 20, 1:30 PM)29.47 "Hg (Jul 26, 5:00 PM)
Average91 °F27%29.62 "Hg
* Reported Jul 13 11:30 AM — Jul 28 12:00 PM, Bamyan, Weather by CustomWeather, © 2016

Note: Actual official high and low records may vary slightly from our data, if they occured in-between our weather recording intervals... More about our weather records

Advertising

Bamyan Weather History for the Previous 24 Hours

Scroll right to see more
 ConditionsComfort  
Time TempWeatherWind HumidityBarometerVisibility
12:00 PM
Thu, Jul 28
99 °FDuststorm.21 mph21%29.68 "Hg6 mi
11:30 AM97 °FDuststorm.22 mph20%29.71 "Hg4 mi
11:00 AM93 °FDuststorm.22 mph23%29.71 "Hg3 mi
10:30 AM93 °FDuststorm.23 mph23%29.71 "Hg2 mi
10:00 AM91 °FDuststorm.21 mph28%29.71 "Hg2 mi
9:30 AM91 °FDuststorm.23 mph26%29.71 "Hg2 mi
9:00 AM90 °FDuststorm.22 mph29%29.71 "Hg1 mi
8:30 AM88 °FDuststorm.17 mph33%29.71 "Hg1 mi
8:00 AM86 °FDuststorm.20 mph35%29.71 "Hg2 mi
7:30 AM84 °FDuststorm.17 mph35%29.71 "Hg3 mi
7:00 AM84 °FDuststorm.21 mph37%29.71 "Hg2 mi
6:30 AM82 °FDuststorm.21 mph37%29.68 "Hg3 mi
6:00 AM82 °FDuststorm.21 mph37%29.68 "Hg3 mi
5:30 AM81 °FDuststorm.16 mph39%29.65 "Hg3 mi
5:00 AM81 °FDuststorm.17 mph39%29.65 "Hg2 mi
4:30 AM82 °FDuststorm.18 mph37%29.62 "Hg1 mi
4:00 AM82 °FDuststorm.17 mph37%29.62 "Hg1 mi
3:30 AM82 °FDuststorm.20 mph40%29.62 "Hg1 mi
3:00 AM82 °FDuststorm.20 mph37%29.62 "Hg2 mi
2:30 AM84 °FDuststorm.21 mph35%29.59 "Hg2 mi
2:00 AM84 °FDuststorm.21 mph35%29.59 "Hg1 mi
1:30 AM86 °FDuststorm.20 mph31%29.59 "Hg1 mi
1:00 AM86 °FDuststorm.17 mph31%29.59 "Hg1 mi
12:30 AM86 °FHaze.16 mph33%29.59 "Hg1 mi
12:00 AM86 °FHaze.15 mph33%29.59 "Hg2 mi
11:30 PM
Wed, Jul 27
88 °FHaze.13 mph29%29.59 "Hg2 mi
11:00 PM88 °FClear.10 mph29%29.59 "Hg4 mi
10:30 PM88 °FHaze.12 mph31%29.59 "Hg2 mi
10:00 PM88 °FHaze.9 mph29%29.56 "Hg2 mi
9:30 PM86 °FClear.8 mph33%29.56 "Hg4 mi
9:00 PM88 °FHaze.6 mph33%29.56 "Hg3 mi
8:30 PM88 °FClear.7 mph33%29.56 "Hg4 mi
8:00 PM91 °FClear.5 mph30%29.56 "Hg4 mi
7:30 PM93 °FClear.7 mph28%29.53 "Hg4 mi
7:00 PM99 °FHaze.7 mph22%29.53 "Hg3 mi
6:30 PM99 °FHaze.9 mph24%29.50 "Hg3 mi
6:00 PM100 °FClear.10 mph22%29.50 "Hg4 mi
5:30 PM104 °FClear.12 mph15%29.50 "Hg4 mi
5:00 PM106 °FSunny.10 mph15%29.47 "Hg10 mi
4:30 PM108 °FSunny.12 mph16%29.50 "Hg10 mi
4:00 PM109 °FSunny.10 mph13%29.50 "Hg10 mi
3:30 PM111 °FClear.5 mph11%29.50 "Hg4 mi
3:00 PM113 °FClear.5 mph12%29.50 "Hg4 mi
2:30 PM109 °FClear.7 mph18%29.50 "Hg5 mi
2:00 PM108 °FClear.10 mph19%29.53 "Hg5 mi
1:30 PM106 °FDuststorm.13 mph17%29.53 "Hg1 mi
1:00 PM104 °FDuststorm.15 mph17%29.53 "Hg1 mi
Weather by CustomWeather, © 2016

See weather overviewHow to use our weather pages